Kapolei, HI

12:12 AM HST on February 21, 2017 (GMT -1000)
Kalaeloa (John Rodgers Field)

Weather History for PHJR - March, 2013

Change the Weather History Date:

Friday, March 15, 2013

  Actual Average (PHNL) Record (PHNL)
Temperature  
Mean Temperature 68 °F -  
Max Temperature 77 °F 81 °F 87 °F (1996)
Min Temperature 60 °F 67 °F 58 °F (1993)
Cooling Degree Days 4    
Growing Degree Days 18 (Base 50)    
Moisture  
Dew Point 59 °F    
Average Humidity 73    
Maximum Humidity 90    
Minimum Humidity 50    
Precipitation  
Precipitation 0.03 in - - ()
Sea Level Pressure  
Sea Level Pressure 29.99 in    
Wind  
Wind Speed 6 mph (NW)    
Max Wind Speed 17 mph    
Max Gust Speed 21 mph    
Visibility 10 miles    
Events      
Averages and records for this station are not official NWS values.
T = Trace of Precipitation, MM = Missing Value Source: NWS Daily Summary

Daily Weather History Graph

Daily Weather History Graph

Search for Another Location

Airport or City:

Trip Planner

Search our weather history database for the weather conditions in past years. The results will help you decide how hot, cold, wet, or windy it might be!

Date:

Astronomy

Mar. 15, 2013 Rise Set
Actual Time 6:40 AM HST 6:41 PM HST
Civil Twilight 6:18 AM HST 7:04 PM HST
Nautical Twilight 5:52 AM HST 7:29 PM HST
Astronomical Twilight 5:26 AM HST 7:55 PM HST
Moon 9:11 AM HST (3/15) 10:30 PM HST (3/15)
Length of Visible Light 12h 45m
Length of Day
12h 01m
Waxing Crescent, 17% of the Moon is Illuminated
Mar 15
Waxing Crescent
Mar 19
First Quarter
Mar 26
Full
Apr 2
Last Quarter
Apr 9
New

Hourly Weather History & Observations

Time (HST) Temp. Dew Point Humidity Pressure Visibility Wind Dir Wind Speed Gust Speed Precip Events Conditions
12:53 AM 64.9 °F 57.9 °F 78% 30.03 in 10.0 mi NE 3.5 mph - N/A   Mostly Cloudy
1:12 AM 64.4 °F 57.2 °F 77% 30.00 in 10.0 mi NNE 3.5 mph - N/A   Overcast
1:46 AM 64.4 °F 57.2 °F 77% 29.98 in 9.0 mi Calm Calm - N/A   Mostly Cloudy
1:53 AM 64.0 °F 57.9 °F 80% 30.01 in 10.0 mi Calm Calm - N/A   Mostly Cloudy
2:53 AM 62.1 °F 59.0 °F 90% 30.00 in 10.0 mi Calm Calm - N/A   Scattered Clouds
3:53 AM 62.1 °F 57.9 °F 86% 29.98 in 10.0 mi Calm Calm - N/A   Clear
4:53 AM 61.0 °F 57.9 °F 90% 29.97 in 10.0 mi NE 3.5 mph - N/A   Clear
5:53 AM 60.1 °F 57.0 °F 90% 29.99 in 10.0 mi NE 3.5 mph - N/A   Clear
6:53 AM 60.1 °F 57.0 °F 90% 30.00 in 10.0 mi ENE 4.6 mph - N/A   Partly Cloudy
7:53 AM 69.1 °F 57.9 °F 68% 30.01 in 10.0 mi WNW 12.7 mph - N/A   Clear
8:53 AM 73.0 °F 55.0 °F 53% 30.02 in 10.0 mi West 12.7 mph - N/A   Clear
9:53 AM 73.9 °F 57.0 °F 55% 30.02 in 10.0 mi West 13.8 mph - N/A   Clear
10:53 AM 75.0 °F 57.9 °F 55% 30.02 in 10.0 mi WNW 11.5 mph 20.7 mph N/A   Clear
11:53 AM 77.0 °F 57.0 °F 50% 30.00 in 10.0 mi WNW 16.1 mph 20.7 mph N/A   Clear
12:53 PM 75.9 °F 57.9 °F 54% 29.99 in 10.0 mi West 16.1 mph 20.7 mph N/A   Partly Cloudy
1:53 PM 75.0 °F 59.0 °F 57% 29.96 in 10.0 mi West 10.4 mph - N/A   Scattered Clouds
2:53 PM 73.0 °F 62.1 °F 68% 29.95 in 10.0 mi WNW 17.3 mph - N/A   Partly Cloudy
3:53 PM 75.0 °F 60.1 °F 60% 29.95 in 10.0 mi NW 13.8 mph - N/A   Clear
4:53 PM 73.9 °F 60.1 °F 62% 29.95 in 10.0 mi West 12.7 mph - N/A   Scattered Clouds
5:53 PM 72.0 °F 59.0 °F 64% 29.96 in 10.0 mi WNW 13.8 mph - N/A   Partly Cloudy
6:53 PM 72.0 °F 61.0 °F 68% 29.98 in 10.0 mi WNW 9.2 mph - N/A   Overcast
7:53 PM 68.0 °F 62.1 °F 81% 29.99 in 10.0 mi WNW 6.9 mph - 0.03 in   Overcast
8:53 PM 68.0 °F 63.0 °F 84% 30.01 in 10.0 mi NNW 3.5 mph - N/A   Partly Cloudy
9:53 PM 66.9 °F 63.0 °F 87% 30.02 in 10.0 mi NNE 3.5 mph - 0.00 in   Mostly Cloudy
10:53 PM 66.9 °F 62.1 °F 84% 30.01 in 10.0 mi Calm Calm - N/A   Mostly Cloudy
11:53 PM 64.9 °F 62.1 °F 90% 30.00 in 10.0 mi Calm Calm - N/A   Scattered Clouds